Volver al catálogo

BB4

ActivoCienciaPO
NORAD 57757·PAYLOAD·🇺🇸 United States

Lanzado Sep 2, 2023 desde Vandenberg Space Force Base

Loading…

Próximos Pases (próximas 24 horas)

TLE

ActualizadoSource: Space-Track

Época: Sep 13, 2026, 05:41 UTC

1 57757U 23133B   26256.23741088  .00001012  00000-0  12828-3 0  9995
2 57757  81.0013 263.9582 0009480  74.6081 285.6175 14.81059069154342

Sigue BB4 en tiempo real con AllMySat

Download on the App Store